Afton, Prince Edward Island

3:02 PM ADT on May 28, 2017 (GMT -0300)
Afton

Weather History for 71706 - November, 2012

Change the Weather History Date:

Thursday, November 15, 2012

  Actual Average Record
Temperature  
Mean Temperature 40 °F -  
Max Temperature 43 °F 37 °F - ()
Min Temperature 38 °F 24 °F - ()
Degree Days  
Heating Degree Days 24    
Moisture  
Dew Point 36 °F    
Average Humidity 82    
Maximum Humidity 100    
Minimum Humidity 67    
Precipitation  
Precipitation 0.04 in 0.17 in - ()
Sea Level Pressure  
Sea Level Pressure 30.37 in    
Wind  
Wind Speed 13 mph ()    
Max Wind Speed 23 mph    
Max Gust Speed 29 mph    
Visibility 12.6 miles    
Events Rain    
T = Trace of Precipitation, MM = Missing Value Source: Averaged Metar Reports

Daily Weather History Graph

Daily Weather History Graph

Search for Another Location

Airport or City:

Trip Planner

Search our weather history database for the weather conditions in past years. The results will help you decide how hot, cold, wet, or windy it might be!

Date:

Astronomy

Nov. 15, 2012 Rise Set
Actual Time 7:14 AM AST 4:39 PM AST
Civil Twilight 6:41 AM AST 5:12 PM AST
Nautical Twilight 6:05 AM AST 5:48 PM AST
Astronomical Twilight 5:29 AM AST 6:24 PM AST
Moon 9:09 AM AST (11/15) 6:22 PM AST (11/15)
Length of Visible Light 10h 30m
Length of Day
9h 25m
Waxing Crescent, 5% of the Moon is Illuminated
Nov 15
Waxing Crescent
Nov 20
First Quarter
Nov 28
Full
Dec 6
Last Quarter
Dec 13
New

Hourly Weather History & Observations

Time (AST) Temp. Windchill Dew Point Humidity Pressure Visibility Wind Dir Wind Speed Gust Speed Precip Events Conditions
12:00 AM 39.2 °F 30.5 °F 32.0 °F 75% 30.48 in 15.0 mi NNE 16.1 mph 23.0 mph N/A   Mostly Cloudy
1:00 AM 39.2 °F 30.8 °F 32.0 °F 75% 30.47 in 15.0 mi NNE 15.0 mph - N/A   Mostly Cloudy
2:00 AM 40 °F - 33 °F 67% 30.47 in 15 mi NNE 17.3 mph - -   Mostly Cloudy
2:00 AM 39.2 °F 30.5 °F 33.8 °F 81% 30.46 in 15.0 mi NNE 16.1 mph 25.3 mph N/A   Mostly Cloudy
3:00 AM 39.2 °F 30.8 °F 32.0 °F 75% 30.46 in 15.0 mi NNE 15.0 mph 21.9 mph N/A   Mostly Cloudy
4:00 AM 41.0 °F 32.8 °F 32.0 °F 70% 30.44 in 15.0 mi NNE 16.1 mph 21.9 mph N/A   Mostly Cloudy
5:00 AM 41.0 °F 33.1 °F 33.8 °F 76% 30.44 in 15.0 mi NNE 15.0 mph - N/A   Mostly Cloudy
6:00 AM 39.2 °F 31.2 °F 33.8 °F 81% 30.44 in 15.0 mi NE 13.8 mph 21.9 mph N/A   Mostly Cloudy
7:00 AM 39.2 °F 31.6 °F 33.8 °F 81% 30.43 in 15.0 mi NNE 12.7 mph 23.0 mph N/A   Mostly Cloudy
8:00 AM 40 °F - 33 °F 69% 30.44 in 15 mi NNE 15.0 mph - -   Mostly Cloudy
8:00 AM 39.2 °F 30.2 °F 33.8 °F 81% 30.43 in 15.0 mi NNE 17.3 mph 24.2 mph N/A   Mostly Cloudy
9:00 AM 41.0 °F 32.8 °F 35.6 °F 81% 30.43 in 15.0 mi NNE 16.1 mph 21.9 mph N/A   Overcast
10:00 AM 42.8 °F 34.8 °F 35.6 °F 76% 30.41 in 15.0 mi NNE 17.3 mph - N/A   Overcast
11:00 AM 42.8 °F 34.0 °F 35.6 °F 76% 30.40 in 15.0 mi NNE 20.7 mph - N/A   Overcast
12:00 PM 42.8 °F 35.1 °F 35.6 °F 76% 30.38 in 15.0 mi NNE 16.1 mph 25.3 mph N/A   Overcast
1:00 PM 42.8 °F 33.5 °F 35.6 °F 76% 30.35 in 15.0 mi NNE 23.0 mph - N/A   Overcast
2:00 PM 42 °F - 36 °F 70% 30.33 in 15 mi NNE 18.4 mph - -   Overcast
2:00 PM 42.8 °F 34.5 °F 35.6 °F 76% 30.33 in 15.0 mi NNE 18.4 mph 28.8 mph N/A   Overcast
3:00 PM 42.8 °F 36.2 °F 35.6 °F 76% 30.34 in 15.0 mi NNE 12.7 mph 21.9 mph N/A   Overcast
4:00 PM 41.0 °F 33.5 °F 35.6 °F 81% 30.35 in 15.0 mi North 13.8 mph 20.7 mph N/A   Overcast
5:00 PM 41.0 °F 33.5 °F 35.6 °F 81% 30.33 in 15.0 mi NNE 13.8 mph - N/A   Overcast
6:00 PM 41.0 °F 34.7 °F 37.4 °F 87% 30.31 in 15.0 mi NNE 10.4 mph - N/A   Overcast
7:00 PM 41.0 °F 35.2 °F 37.4 °F 87% 30.30 in 15.0 mi North 9.2 mph - N/A   Overcast
7:37 PM 41.0 °F 34.7 °F 39.2 °F 93% 30.30 in 12.0 mi North 10.4 mph - N/A Rain Light Rain Showers
8:00 PM 41 °F - 40 °F 95% 30.29 in 6 mi North 10.4 mph - - Rain Light Drizzle
8:00 PM 41.0 °F 34.3 °F 39.2 °F 93% 30.29 in 6.0 mi North 11.5 mph - N/A   Light Drizzle
8:46 PM 41.0 °F 35.8 °F 41.0 °F 100% 30.28 in 2.5 mi North 8.1 mph - N/A   Light Drizzle
9:00 PM 41.0 °F 34.3 °F 41.0 °F 100% 30.27 in 2.5 mi North 11.5 mph - N/A   Light Drizzle
10:00 PM 41.0 °F 34.7 °F 41.0 °F 100% 30.25 in 2.0 mi NNE 10.4 mph - N/A   Light Drizzle
11:00 PM 41.0 °F 36.4 °F 41.0 °F 100% 30.24 in 2.0 mi North 6.9 mph - N/A   Light Drizzle